| time (UTC) | temp F | wind direction | speed MPH | gust MPH | rain 1hr in | rain 24hr in | rain mn in | humidity % | barometer mb |
| 20260504221836 | 55 | 48 | 7.0 | 11.0 | 0.00 | 0.00 | 0.00 | 41 | |
| 20260504220915 | 55 | 352 | 11.0 | 17.0 | 0.00 | 0.00 | 0.00 | 41 | |
| 20260504215523 | 56 | 356 | 10.0 | 15.0 | 0.00 | 0.00 | 0.00 | 41 | |
| 20260504214251 | 55 | 21 | 6.0 | 9.0 | 0.00 | 0.00 | 0.00 | 41 | |
| 20260504210801 | 56 | 310 | 13.0 | 15.0 | 0.00 | 0.00 | 0.00 | 38 | |
| 20260504205645 | 57 | 307 | 14.0 | 16.0 | 0.00 | 0.00 | 0.00 | 38 | |
| 20260504201020 | 53 | 315 | 5.0 | 6.0 | 0.00 | 0.00 | 0.00 | 42 | |
| 20260504195940 | 53 | 36 | 5.0 | 6.0 | 0.00 | 0.00 | 0.00 | 42 | |
| 20260504195004 | 53 | 43 | 6.0 | 8.0 | 0.00 | 0.00 | 0.00 | 43 | |
| 20260504193956 | 53 | 70 | 8.0 | 9.0 | 0.00 | 0.00 | 0.00 | 43 | |
| 20260504192948 | 53 | 38 | 10.0 | 13.0 | 0.00 | 0.00 | 0.00 | 43 | |
| 20260504191659 | 52 | 68 | 5.0 | 7.0 | 0.00 | 0.00 | 0.00 | 46 | |
| 20260504190636 | 52 | 311 | 9.0 | 13.0 | 0.00 | 0.00 | 0.00 | 48 | |
| 20260504185631 | 51 | 322 | 9.0 | 11.0 | 0.00 | 0.00 | 0.00 | 47 | |
| 20260504184638 | 52 | 40 | 7.0 | 14.0 | 0.00 | 0.00 | 0.00 | 49 | |
| 20260504183332 | 53 | 27 | 11.0 | 14.0 | 0.00 | 0.00 | 0.00 | 47 | |
| 20260504182328 | 53 | 354 | 7.0 | 9.0 | 0.00 | 0.00 | 0.00 | 48 | |
| 20260504181317 | 53 | 40 | 8.0 | 10.0 | 0.00 | 0.00 | 0.00 | 44 | |
| 20260504181020 | 55 | 22 | 12.0 | 14.0 | 0.00 | 0.00 | 0.00 | 43 | |
| 20260504175108 | 56 | 26 | 11.0 | 13.0 | 0.00 | 0.00 | 0.00 | 41 | |
| 20260504173956 | 55 | 29 | 9.0 | 11.0 | 0.00 | 0.00 | 0.00 | 40 | |
| 20260504173332 | 53 | 29 | 7.0 | 9.0 | 0.00 | 0.00 | 0.00 | 44 | |
| 20260504171957 | 55 | 28 | 15.0 | 19.0 | 0.00 | 0.00 | 0.00 | 42 | |
| 20260504170932 | 54 | 21 | 10.0 | 13.0 | 0.00 | 0.00 | 0.00 | 43 | |
| 20260504160428 | 52 | 321 | 4.0 | 5.0 | 0.00 | 0.00 | 0.00 | 47 | |
| 20260504150621 | 49 | 114 | 1.0 | 2.0 | 0.00 | 0.00 | 0.00 | 50 | |
| 20260504140533 | 47 | 16 | 6.0 | 9.0 | 0.00 | 0.00 | 0.00 | 55 | |
| 20260504130341 | 47 | 278 | 15.0 | 18.0 | 0.00 | 0.00 | 0.00 | 54 | |
| 20260504070356 | 53 | 62 | 5.0 | 6.0 | 0.00 | 0.00 | 0.00 | 35 | |
| 20260504060149 | 56 | 91 | 5.0 | 6.0 | 0.00 | 0.00 | 0.00 | 34 | |
| 20260504000133 | 72 | 36 | 5.0 | 6.0 | 0.00 | 0.00 | 0.00 | 30 | |
| 20260503234943 | 72 | 330 | 6.0 | 8.0 | 0.00 | 0.00 | 0.00 | 27 | |
| 20260503233825 | 72 | 335 | 9.0 | 11.0 | 0.00 | 0.00 | 0.00 | 26 | |
| 20260503232829 | 72 | 63 | 3.0 | 5.0 | 0.00 | 0.00 | 0.00 | 28 | |
| 20260503231806 | 73 | 295 | 9.0 | 10.0 | 0.00 | 0.00 | 0.00 | 26 | |
| 20260503230726 | 73 | 316 | 6.0 | 9.0 | 0.00 | 0.00 | 0.00 | 26 | |
| 20260503225614 | 73 | 69 | 7.0 | 8.0 | 0.00 | 0.00 | 0.00 | 26 | |
| 20260503224606 | 73 | 314 | 8.0 | 11.0 | 0.00 | 0.00 | 0.00 | 28 | |
| 20260503224209 | 72 | 23 | 4.0 | 6.0 | 0.00 | 0.00 | 0.00 | 28 |